Location: Cisewo
(53.3833°N, 14.9000°E)
Time: 01:34:58
(UTC+00:00)

USA 229 - Pass Details

Date: 01 August 2021
Orbit: 956 x 1256 km, 63.5° (Epoch: 08 August)

Event Time Altitude Azimuth Distance (km) Brightness Sun altitude
Rises 23:42:18 0° 306° (NW) 4,017 7.1 -18.4°
Reaches altitude 10° 23:46:54 10° 280° (W) 3,115 6.1 -18.3°
Maximum altitude 23:49:47 13° 257° (WSW) 2,949 5.8 -18.3°
Enters shadow 23:51:58 11° 239° (WSW) 3,082 5.7 -18.2°
